Regional Weather Roundup
Issued by NWS

Home | Current Version | Previous Version | Text Only | Print | Product List | Glossary Off
Versions: 1 2 3 4 5 6 7 8 9 10 11 12 13 14 15 16 17 18 19 20 21 22 23 24 25 26 27 28 29 30 31 32 33 34 35 36 37 38 39 40 41 42 43 44 45 46 47 48 49 50

000
ASUS45 KABQ 231501
RWRNM
WEATHER ROUNDUP FOR NEW MEXICO
NATIONAL WEATHER SERVICE ALBUQUERQUE NM
900 AM MDT WED JUL 23 2014

NOTE: "FAIR" MEANS FEW OR NO CLOUDS BELOW 12,000 FEET AGL WITH NO
       SIGNIFICANT WEATHER OR OBSTRUCTIONS TO VISION.

      THIS PRODUCT IS RELEASED AS TWO VERSIONS.  ONE VERSION NEAR
      THE TOP OF THE HOUR CONTAINING PRELIMINARY DATA FROM ALBUQUERQUE
      AND OTHER STATIONS.  A FINAL VERSION WITH ADDITIONAL DATA IS
      ISSUED ABOUT 10 MINUTES AFTER THE HOUR.

NMZ501-503-504-510>518-231600-
NORTHWEST PLATEAU/NORTHCENTRAL MOUNTAINS

CITY           SKY/WX    TMP DP  RH WIND       PRES   REMARKS
FARMINGTON     SUNNY     76  52  43 E7        30.36R
LOS ALAMOS     SUNNY     69  48  47 CALM      30.54R
SANTA FE       SUNNY     74  52  46 VRB7      30.46S
TAOS           SUNNY     66  50  55 NW3       30.53F
ANGEL FIRE     FAIR      60  52  74 CALM      30.64F

$$
NMZ402-403-502-505>509-231600-
WESTCENTRAL MOUNTAINS/SOUTHWEST MOUNTAINS

CITY           SKY/WX    TMP DP  RH WIND       PRES   REMARKS
GALLUP         SUNNY     76  49  38 E8        30.43S
GRANTS         SUNNY     69  52  54 NW3       30.47R

$$
NMZ407-409-411-412-231600-
SOUTHERN DESERTS

CITY           SKY/WX    TMP DP  RH WIND       PRES   REMARKS
LORDSBURG      FAIR      77  55  47 CALM      30.25S
DEMING         SUNNY     78  62  57 NE12      30.26R
LAS CRUCES     SUNNY     82  58  44 NE9       30.29R
HOLLOMAN AFB   MOSUNNY   84  57  38 W3        30.27R
T OR C         SUNNY     78  56  46 NE5       30.32R

$$
NMZ519>523-231600-
CENTRAL VALLEYS/CENTRAL HIGHLANDS

CITY           SKY/WX    TMP DP  RH WIND       PRES   REMARKS
ALBUQUERQUE    MOSUNNY   76  57  51 NW5       30.38R
DOUBLE EAGLE   SUNNY     75  55  50 N7        30.43R
MORIARTY ARPT  LGT RAIN  66  58  77 S5        30.47S
CLINES CORNERS PTSUNNY   69  56  62 SE5       30.51R
BELEN          FAIR      73  53  49 CALM      30.38R
SOCORRO        FAIR      78  54  42 N6        30.35R

$$
NMZ524>526-539-540-231600-
SOUTHCENTRAL MOUNTAINS

CITY           SKY/WX    TMP DP  RH WIND       PRES   REMARKS
RUIDOSO        NOT AVBL

$$
NMZ527>531-231600-
NORTHEAST HIGHLANDS/NORTHEAST PLAINS

CITY           SKY/WX    TMP DP  RH WIND       PRES   REMARKS
LAS VEGAS      MOSUNNY   67  56  67 N5        30.52R
RATON          SUNNY     73  55  53 VRB5      30.46S
CLAYTON        SUNNY     82  58  43 SW10      30.37S

$$
NMZ532>537-231600-
EASTCENTRAL PLAINS

CITY           SKY/WX    TMP DP  RH WIND       PRES   REMARKS
TUCUMCARI      SUNNY     80  62  54 S3        30.32R
CANNON AFB     SUNNY     78  63  60 SW6       30.35R
CLOVIS AIRPORT NOT AVBL

$$
NMZ028-029-538-231600-
SOUTHEAST PLAINS

CITY           SKY/WX    TMP DP  RH WIND       PRES   REMARKS
ROSWELL        SUNNY     82  61  48 CALM      30.28R
ARTESIA        SUNNY     81  59  47 SE3       30.27R
CARLSBAD       SUNNY     84  59  42 CALM      30.24R
HOBBS          SUNNY     81  63  54 SE6       30.29R


$$


USA.gov is the U.S. government's official web portal to all federal, state and local government web resources and services.